Other Public Products
Issued by NWS Grand Forks, ND

Home | Current Version | Previous Version | Graphics & Text | Print | Product List | Glossary On
Versions: 1 2 3 4 5 6 7 8 9 10 11 12 13 14 15 16 17 18 19 20 21 22 23 24 25 26 27 28 29 30 31 32 33 34 35 36 37 38 39 40 41 42 43 44 45 46 47 48 49 50
000
FPUS83 KFGF 290910
OPUFGF
PRAIRIE TO PINES WEATHER ROUNDUP
NATIONAL WEATHER SERVICE EASTERN NORTH DAKOTA/GRAND FORKS ND
400 AM CDT FRI AUG 29 2014

 **SATELLITE DATA USED TO AUGMENT SKY COVER AT AUTOMATED STATIONS**
 *****  WEATHER ACROSS EASTERN NORTH DAKOTA  *****

CITY           SKY/WX    TMP DP  RH WIND       PRES   REMARKS
GRAND FORKS    CLOUDY    67  64  90 S8        29.77F
GRAND FORKS AF CLOUDY    66  66 100 SW9       29.79F
GRAND CITY NWS   N/A     64 N/A N/A S5          N/A
BUXTON         NOT AVBL
DEVILS LAKE    CLOUDY    66  61  82 S13       29.76F
FARGO          CLOUDY    66  64  93 S6        29.79S
WAHPETON ARPT  CLOUDY    64  63  94 SE6       29.79F
$$

 *****  WEATHER ACROSS CENTRAL AND WESTERN NORTH DAKOTA  *****

CITY           SKY/WX    TMP DP  RH WIND       PRES   REMARKS
JAMESTOWN      FOG       65  64  97 S6        29.79S VSB 1/2
BISMARCK       MOCLDY    60  60 100 CALM      29.80S FOG
MINOT          PTCLDY    67  62  84 SW12      29.73R
MINOT AFB      CLEAR     64  64  99 W22       29.73R
GARRISON         N/A     64  63  96 S8        29.74F
WILLISTON      MOCLDY    65  53  65 N20G29    29.86R
DICKINSON      PTCLDY    58  54  86 S6        29.79F
HETTINGER      FOG       53  52  96 CALM      29.84S VSB 1/2
$$

 *****  OTHER OBSERVATIONS NORTHEAST NORTH DAKOTA  *****

CITY           SKY/WX    TMP DP  RH WIND       PRES   REMARKS
WALHALLA         N/A     68  68 100 CALM      29.78R
LANGDON        CLOUDY    66  64  94 SW10      29.78S
CAVALIER       CLOUDY    68  64  88 S6        29.78R
GRAFTON        CLOUDY    66  64  94 S9        29.77S
CANDO          CLOUDY    64  64 100 S10       29.76S
FORT TOTTEN      N/A     66  65  95 S7        29.95S
ROLLA          CLOUDY    64  64 100 S5        29.78S FOG
RUGBY          FAIR      63  63 100 S9        29.73F
 ***** THE ABOVE OBSERVATIONS ARE NON NWS ARE NOT QUALITY
        CONTROLLED AND MAY MIS-REPORT RAIN FOR SNOW...
$$

 *****  OTHER OBSERVATIONS SOUTHEAST NORTH DAKOTA *****

CITY           SKY/WX    TMP DP  RH WIND       PRES   REMARKS
COOPERSTOWN    NOT AVBL
VALLEY CITY    CLOUDY    64  64 100 S3        29.80S FOG
OAKES            N/A     64  64 100 SE3       29.79S FOG
GWINNER        CLOUDY    64  64 100 CALM      29.80S
SHEYENNE NWR     N/A     65  65  99 S2        29.95
BUFFALO        NOT AVBL
WYNDMERE       NOT AVBL
 ***** THE ABOVE OBSERVATIONS ARE NON NWS ARE NOT QUALITY
       CONTROLLED AND MAY MIS-REPORT RAIN FOR SNOW...
$$

  *****  WEATHER ACROSS NORTHERN MINNESOTA  *****

CITY           SKY/WX    TMP DP  RH WIND       PRES   REMARKS
FLAG ISLAND    CLOUDY    66  63  88 S12       29.80F
WARROAD        MOCLDY    63  59  88 S5        29.81F
ROSEAU         MOCLDY    64  59  82 S7        29.80F
HALLOCK        CLOUDY    66  64  94 S9        29.78S
THF RVR FALLS  CLOUDY    63  61  94 SE5       29.81F
HALSTAD          N/A     64  63  94 E2          N/A
FOSSTON        DRIZZLE   63  61  94 CALM      29.83S
BAUDETTE       CLOUDY    63  61  93 CALM      29.83F
WASKISH        CLOUDY    64  61  88 CALM      29.84S
CROOKSTON      CLOUDY    64  63  94 S5        29.80F
$$
  *****  WEATHER ACROSS CENTRAL AND WEST MINNESOTA  *****

CITY           SKY/WX    TMP DP  RH WIND       PRES   REMARKS
BEMIDJI        DRIZZLE   64  62  94 SE3       29.84S
PARK RAPIDS    RAIN      64  63  96 SE5       29.82F FOG
WADENA         LGT RAIN  63  63 100 SE5       29.81F
DETROIT LAKES  DRIZZLE   64  63  94 SE6       29.82F
MOORHEAD       CLOUDY    66  66 100 CALM      29.80S
FERGUS FALLS   CLOUDY    66  64  94 S5        29.80S FOG
ELBOW LAKE     FOG       64  64  99 SE3       29.80F VSB 3/4
MORRIS MN      CLOUDY    64  64 100 E5        29.79S FOG
STAPLES        CLOUDY    63  63 100 CALM      29.82F FOG
WHEATON        CLOUDY    63  63 100 SE7       29.80F FOG
$$
  *****  WEATHER ELSEWHERE ACROSS MINNESOTA  *****

CITY           SKY/WX    TMP DP  RH WIND       PRES   REMARKS
DULUTH         CLOUDY    61  57  87 E7        29.87F
INTRNTL FALLS  CLOUDY    59  58  96 SE3       29.85F
ELY            CLOUDY    59  54  82 SE3       29.89F
CLOQUET        CLOUDY    61  57  88 E5        29.87F
BRAINERD       CLOUDY    62  62 100 CALM      29.83F FOG
HIBBING        CLOUDY    60  57  89 SE5       29.87F
ALEXANDRIA     RAIN      64  63  96 SE3       29.82F FOG
SAINT CLOUD    CLOUDY    67  65  93 E3        29.80F FOG
MINNEAPOLIS    CLOUDY    67  66  97 SE10      29.82S
$$

  *****  WEATHER ACROSS SOUTH DAKOTA  *****

CITY           SKY/WX    TMP DP  RH WIND       PRES   REMARKS
SIOUX FALLS    CLOUDY    72  70  93 SW5       29.78R
BROOKINGS      NOT AVBL
WATERTOWN      FOG       66  66 100 CALM      29.79F VSB 3/4
HURON          CLOUDY    69  67  93 E3        29.77S FOG
SISSETON         N/A     65  65 100 CALM      29.78S
ABERDEEN       CLOUDY    65  65 100 N3        29.79S
MITCHELL       FOG       69  69 100 W5        29.77R VSB 3/4
PIERRE         FOG       65  65 100 NW7       29.80S VSB 1/4
MOBRIDGE       CLOUDY    65  65 100 S6        29.79S FOG
RAPID CITY     CLEAR     59  52  77 W9        29.89S
$$

  *****  SOME WEATHER IN NEARBY STATES *****

CITY           SKY/WX    TMP DP  RH WIND       PRES   REMARKS
GLASGOW MT     CLOUDY    60  57  89 NW3       29.94R
GREAT FALLS MT CLEAR     51  49  92 SW9       30.09F
CHEYENNE WY    CLEAR     53  42  66 NW9       30.12S
SCOTTSBLUFF NE CLEAR     50  49  96 N5        29.98F
OMAHA NE       CLOUDY    72  68  87 SE7       29.80F
DES MOINES IA  CLOUDY    69  66  90 SE7       29.86F
DAVENPORT IA   MOCLDY    70  67  90 S7        29.93F
CHICAGO IL     CLOUDY    71  63  75 S7        29.97S
EAU CLAIRE WI  HVY RAIN  59  58  96 SE8       29.90F FOG
LA CROSSE WI   CLOUDY    66  62  87 E8        29.89F
$$

  *****  SOME NATIONAL WEATHER *****

CITY           SKY/WX    TMP DP  RH WIND       PRES   REMARKS
LA GUARDIA NY  CLEAR     65  51  60 NE8       30.10R
RALEIGH NC     PTCLDY    74  70  87 NE5       30.05R
ATLANTA GA     PTCLDY    70  59  68 CALM      30.04S
NEW ORLEANS LA PTCLDY    79  73  82 CALM      29.93F
OKLAHOMA CITY  CLOUDY    69  64  84 W7        29.91S
ALBUQUERQUE NM CLEAR     62  44  51 E6        30.15R
SALT LAKE CITY CLEAR     65  44  46 SE9       30.07S
LOS ANGELES CA CLEAR     67  62  84 W5        29.89F
BOISE ID       CLEAR     66  41  40 SW5       29.96S
SEATTLE WA     MOCLDY    61  57  88 S3        30.00F
$$

*** WEATHER ACROSS MANITOBA...SASKATCHEWAN AND ONTARIO ***
                ***ONTARIO***

CITY           SKY/WX    TMP DP  RH WIND       PRES   REMARKS
GERALDTON      PTCLDY    52  46  82 S7        29.96F
THUNDER BAY    CLOUDY    54  52  94 NE2       29.93F
SIOUX LOOKOUT  CLOUDY    64  59  82 S6        29.83F
TORONTO        PTCLDY    54  48  82 N6        30.16S
BIG TROUT LK   PTCLDY    61  59  94 W8        29.64S
PICKLE LAKE    NOT AVBL
DRYDEN         MOCLDY    64  59  82 S10       29.83F
KENORA         CLOUDY    66  61  82 SW10G18   29.81F
$$
                *** MANITOBA***

CITY           SKY/WX    TMP DP  RH WIND       PRES   REMARKS
BRANDON        PTCLDY    61  61 100 E9        29.77R
DAUPHIN        CLOUDY    61  57  88 N12       29.80F
ISLAND LAKE    NOT AVBL
PILOT MOUND    NOT AVBL
THE PAS        PTCLDY    54  45  71 NW14G20   29.87R
THOMPSON       NOT AVBL
WINNIPEG       MOCLDY    68  64  88 S13       29.76F
LYNN LAKE      CLEAR     46  45  93 MISG      29.84R
CHURCHILL      CLOUDY    50  46  87 N9        29.66R
GILLAM         MOCLDY    54  54 100 W6        29.67R
$$
                ***SASKATCHEWAN***

CITY           SKY/WX    TMP DP  RH WIND       PRES   REMARKS
ESTEVAN        MOCLDY    59  57  94 NW8       29.84S
KINDERSLEY     MOCLDY    46  45  93 NW2       30.02R
LLOYDMINSTER   CLEAR     45  41  87 SE2       30.00S
PRINCE ALBERT  CLEAR     41  39  93 N6        29.99R
REGINA         CLOUDY    57  54  88 N9        29.93R


USA.gov is the U.S. government's official web portal to all federal, state and local government web resources and services.